Погода в Платошино

Россия / Пермский край     57°37′58″N   56°31′45″E
темп.,
°C
ветер,
м/с
пор.,
м/с
влажн.,
%
обл.,
%
осадки,
мм/ч
давл.,
гПа
погр.,
м
8 марта, пн
пн823:00−18ююз229571 0.1 100820
02:00−18ю229810 0.0 100720
05:00−19юв359931 0.0 1005112
08:00−16юв4996100 0.1 1002288
11:00−12ююв5992100 0.6 1000627
14:00−9ююв5989100 0.3 998750
17:00−7вюв5994100 1.0 995630
20:00−5ююз2896100 1.6 995489
9 марта, вт
вт923:00−8з51191100 2.1 998555
02:00−10юз279599 0.1 1000238
05:00−13ююз249699 0.1 100079
08:00−15зсз129799 0.0 100020
11:00−10з249299 0.1 1003340
14:00−8зсз3487100 0.1 1006683
17:00−8сз2388100 0.3 1008533
20:00−12ссв2396100 0.1 100972
10 марта, ср
ср1023:00−15ссв2396100 0.2 101173
02:00−16ссв3696100 0.1 1011234
05:00−21с389799 0.1 1010212
08:00−24с489598 0.0 1010246
11:00−23ссз599399 0.0 1009299
14:00−18с61286100 0.0 1008441
17:00−17ссз61286100 0.0 1008548
20:00−19ссз61388100 0.0 1010568
11 марта, чт
чт1123:00−21ссз61292100 0.1 1011486
02:00−23ссз41293100 0.0 1011380
05:00−26сз379996 0.0 1012157
08:00−27сз2610090 0.0 1013139
11:00−20зсз359694 0.1 1013259
14:00−16зсз3692100 0.1 1012419
17:00−14зсз3690100 0.2 1011648
20:00−13зсз2896100 0.6 1012422
12 марта, пт
пт1223:00−16с3696100 0.8 1014201
02:00−18сз129696 0.1 101632
05:00−20з119997 0.1 101720
08:00−17зюз2497100 0.1 1019126
11:00−13зсз4792100 0.1 1020463
14:00−11зсз4785100 0.0 1020593
17:00−9зсз5108198 0.0 1020796
20:00−10з51286100 0.0 1022552